Regional Weather Roundup
Issued by NWS

Home | Current Version | Previous Version | Graphics & Text | Print | Product List | Glossary On
Versions: 1 2 3 4 5 6 7 8 9 10 11 12 13 14 15 16 17 18 19 20 21 22 23 24 25 26 27 28 29 30 31 32 33 34 35 36 37 38 39 40 41 42 43 44 45 46 47 48 49 50
000
ASUS43 KIND 221109
RWRIN

WEATHER ROUNDUP FOR INDIANA
NATIONAL WEATHER SERVICE INDIANAPOLIS IN
700 AM EDT TUE MAY 22 2018

NOTE: "FAIR" INDICATES FEW OR NO CLOUDS BELOW 12,000 FEET WITH NO
SIGNIFICANT WEATHER AND/OR OBSTRUCTIONS TO VISIBILITY.

* - STATION DOES NOT REPORT WEATHER SUCH AS PRECIPITATION OR FOG.

+ - STATION NOT QUALITY CONTROLLED BY THE NATIONAL WEATHER SERVICE.
    USE DATA WITH CAUTION...ESPECIALLY DEWPOINT AND RELATIVE
    HUMIDITY OBSERVATIONS.

INZ001>003-010>013-019-020-221200-
NORTHWEST INDIANA

CITY           SKY/WX    TMP DP  RH WIND       PRES   REMARKS
GARY /AIRPORT/ CLOUDY    52  52 100 CALM      30.00R FOG
KNOX *+        CLOUDY    63  63 100 SW5       29.97R
LA PORTE +     FOG       57  57 100 CALM      29.99R VSB 1/4
MICHIGAN CITY+ FOG       52  52 100 CALM      30.00R VSB 1
MONTICELLO +   CLOUDY    65  63  96 S5        29.98R FOG
RENSSELAER +   MOCLDY    63  59  88 SW6       29.98S FOG
VALPARAISO     FOG       57  56  96 NW6       30.00R VSB 1/2

$$

LMZ046-743>745-221200-
SOUTHERN LAKE MICHIGAN

STATION/POSITION TIME  TEMP    WIND        PRES    WAVE
                       AIR SEA DIR/SP/G            HT
                 (UTC) (F)     (DEG/KT/KT) (MB)    (FT)
BURNS HARBOR     1040   49        CALM     1016.6R
5NW MICH CITY    1100   47 53  300/  4/  6   N/A     1

$$

INZ004-005-014>016-021>024-221200-
NORTH CENTRAL INDIANA

CITY           SKY/WX    TMP DP  RH WIND       PRES   REMARKS
ELKHART        CLOUDY    59  57  94 CALM      29.98  FOG
GOSHEN         CLOUDY    59  58  96 S6        29.97S FOG
LOGANSPORT +   FAIR      63  63 100 SW3       30.00R FOG
PERU/GRISSOM   MOCLDY    65  65 100 SW5       29.98S FOG
ROCHESTER +      N/A     66  66 100 S3        29.99R FOG
SOUTH BEND     CLOUDY    60  60 100 CALM      29.99R FOG
WARSAW +       CLOUDY    61  61 100 S3        29.99R FOG

$$

INZ006>009-017-018-025>027-221200-
NORTHEAST INDIANA

CITY           SKY/WX    TMP DP  RH WIND       PRES   REMARKS
ANGOLA *+      FOG       57  57 100 CALM      29.98S VSB 1/4
AUBURN +       FOG       59  59 100 SW3       30.00R VSB<1/4
FORT WAYNE     FOG       62  62 100 SW7       30.00R VSB 1/8
HUNTINGTON +   MOCLDY    61  60  96 CALM      29.99S FOG

$$

INZ028-029-035-036-043>045-051>053-221200-
WEST CENTRAL INDIANA

CITY           SKY/WX    TMP DP  RH WIND       PRES   REMARKS
CRAWFORDSVL +  FOG       64  64 100 S3        30.01R VSB<1/4
GREENCASTLE +  FOG       64  64 100 CALM      30.02R VSB 1/2
LAFAYETTE      MOCLDY    61  61 100 CALM      29.99R FOG
TERRE HAUTE    FOG       65  65 100 CALM      30.01R VSB<1/4

$$

INZ030>032-037>040-046>048-054>057-064-065-221200-
CENTRAL INDIANA

CITY           SKY/WX    TMP DP  RH WIND       PRES   REMARKS
ANDERSON       FAIR      66  65  97 SW5       30.02R FOG
FISHERS *+     FAIR     N/A N/A N/A CALM      30.02R
FRANKFORT +    FOG      N/A N/A N/A CALM      30.02R VSB<1/4
GREENWOOD *+   MOCLDY    64  64 100 CALM      30.03R
INDIANAPOLIS   FOG       66  65  96 SW5       30.01R VSB 1/2
-EAGLE CREEK   CLOUDY    66  65  96 CALM      30.01R FOG
KOKOMO +       FAIR      65  64  97 SW3       30.01R FOG
MARION +       CLOUDY    64  64  99 CALM      30.01R FOG
MT COMFORT *+  MOCLDY    64  64 100 CALM      30.02S
SHELBYVILLE    CLOUDY    68  65  90 S3        30.01R FOG
ZIONSVILLE +   FOG       64  64 100 S5        30.02R VSB 1/2

$$

INZ033-034-041-042-049-050-058-059-221200-
EAST CENTRAL INDIANA

CITY           SKY/WX    TMP DP  RH WIND       PRES   REMARKS
MUNCIE         FAIR      68  65  90 SW6       30.01R FOG
RICHMOND +     CLOUDY    63  63 100 CALM      30.05R FOG

$$

INZ060-061-067>069-081>083-085>088-221200-
SOUTHWEST INDIANA

CITY           SKY/WX    TMP DP  RH WIND       PRES   REMARKS
EVANSVILLE     CLOUDY    68  68 100 CALM      30.02R FOG
HUNTINGBURG +  CLOUDY    67  67 100 S3        30.03  FOG
WASHINGTON +   CLOUDY    66  64  94 S6        30.01R FOG

$$

INZ062-063-066-070>080-084-089>092-221200-
SOUTH CENTRAL AND SOUTHEAST INDIANA

CITY           SKY/WX    TMP DP  RH WIND       PRES   REMARKS
BATESVILLE +   PTCLDY    64  64 100 CALM      30.03R FOG
BEDFORD +      FAIR      63  61  94 CALM      30.01S FOG
BLOOMINGTON    FOG       64  64 100 CALM      30.03R VSB 1
FRENCH LICK *+ FAIR      64 N/A N/A CALM      30.04R
MADISON *+     CLOUDY    68  66  94 CALM      30.06R
NORTH VERNON + FAIR      64  64 100 CALM      30.02R FOG
SEYMOUR +      FAIR      66  66 100 CALM      30.03R FOG

$$




USA.gov is the U.S. government's official web portal to all federal, state and local government web resources and services.